Temp
13 13 13 14 14 14 14 13 14 14 14 14 14 14 14 13 14 13 14 13 14 14 14 14 13 13 13 13 13 13 13 13 12 12 12 12 12 12 11 12 12 12 12 12 13
13 13 13 14 14 14 14 14 14 14 14 14 14 14 13 13 14 14 14 14 14 14 14 14 13 13 13 13 14 14 14 13 14 13 13 13 13 12 12 11 12 12 13 12 13
12 13 13 13 14 14 14 14 14 14 14 14 14 13 13 14 14 13 14 14 14 14 14 14 14 13 14 14 14 14 14 14 14 14 13 13 13 12 12 13 12 12 13 13 13
12 13 13 13 14 14 14 14 14 14 14 14 14 13 14 14 14 13 14 14 14 14 14 14 14 13 14 14 15 15 15 15 15 14 14 14 13 13 13 12 12 13 12 13 13
12 13 13 13 13 14 14 14 14 14 14 14 14 14 14 14 14 14 14 14 14 14 14 14 14 14 14 14 15 15 15 15 15 15 14 14 14 13 13 12 13 13 12 13 13
12 12 13 13 13 14 14 14 14 14 14 14 14 14 14 14 14 14 14 14 14 14 13 14 14 13 14 15 15 15 15 15 15 14 14 14 14 13 13 13 13 13 12 12 13
13 13 13 13 13 13 14 14 14 14 14 14 14 14 14 14 14 14 14 14 14 13 13 13 13 13 14 15 15 15 15 15 14 14 14 14 13 15 13 13 13 13 12 13 13
13 13 13 13 13 13 13 14 14 14 14 14 14 14 14 15 14 14 14 14 14 13 13 13 14 14 15 15 15 15 15 15 14 14 14 14 14 14 14 13 13 13 13 13 13
12 13 13 13 13 13 13 13 14 14 14 14 14 14 14 15 15 15 14 14 14 14 14 14 15 15 15 16 15 15 15 15 14 14 14 14 15 15 15 14 13 13 13 13 13
12 13 13 13 13 13 13 13 13 14 14 14 14 14 14 15 14 15 14 14 14 14 14 14 15 15 16 15 14 14 15 16 15 15 14 15 15 15 15 15 14 13 13 13 13
13 13 13 13 13 13 13 13 13 14 14 14 14 14 14 14 14 15 15 14 14 14 14 14 15 16 15 15 14 14 14 14 15 15 15 14 15 15 15 15 15 14 13 13 13
13 13 13 13 13 13 13 13 14 14 14 14 14 14 14 14 15 15 15 15 15 15 14 14 16 15 15 16 16 14 14 14 15 15 15 15 15 15 15 15 15 15 14 13 13
13 13 13 13 13 13 13 13 13 13 14 14 15 14 14 14 15 15 15 15 14 14 15 15 16 15 16 16 16 15 14 16 16 16 16 15 16 16 16 16 15 15 14 14 13
14 13 13 13 13 12 13 13 13 13 14 15 15 14 14 14 14 14 15 14 14 15 15 15 15 16 16 17 17 16 17 16 16 16 15 15 15 17 17 17 17 16 15 15 14
14 14 13 13 13 12 13 12 13 13 11 15 15 15 14 14 15 15 15 14 14 15 15 15 15 16 17 16 17 17 17 17 15 15 15 15 14 17 17 18 18 17 16 16 15
13 14 14 13 13 13 12 12 12 12 13 15 15 15 14 14 14 15 15 14 15 15 15 15 16 16 17 16 17 17 17 15 15 14 13 15 15 18 18 18 18 17 16 16 16
13 14 14 13 13 13 13 12 12 12 15 15 15 15 15 15 15 14 15 15 15 15 15 16 16 16 17 17 17 17 17 16 13 12 12 17 15 19 19 18 18 18 17 17 16
13 14 14 13 13 13 12 12 12 15 15 14 15 15 15 15 15 15 15 15 15 15 15 16 16 17 17 17 18 17 17 17 15 11 15 15 16 19 19 19 18 17 17 17 17
13 13 14 14 13 13 12 12 14 14 14 15 15 15 15 15 15 15 15 15 15 15 15 16 16 18 17 18 17 17 17 18 18 15 13 16 17 19 19 19 18 17 17 17 17
13 13 13 14 13 12 12 13 14 14 14 14 15 15 15 15 15 15 15 16 16 16 15 15 16 17 17 17 17 17 17 17 17 14 15 16 17 18 19 19 18 18 18 18 18
13 13 13 14 13 12 11 13 14 14 14 14 15 15 15 15 16 16 16 16 16 16 16 15 15 17 17 17 18 17 17 17 17 17 13 11 17 18 18 18 18 18 18 18 18
12 12 13 13 12 12 12 13 13 14 14 13 14 15 15 15 15 15 15 16 16 17 17 16 16 16 17 17 17 17 17 17 17 16 16 15 18 19 19 18 18 19 18 18 18
11 11 11 12 12 12 12 11 11 12 13 13 14 14 14 15 15 16 15 15 16 16 17 17 16 16 16 15 16 16 16 17 17 17 17 15 18 18 18 18 18 18 18 18 17
10 10 10 11 11 11 10 11 11 12 13 13 13 14 14 14 15 15 15 15 16 16 16 17 17 17 17 17 17 16 16 16 16 16 16 16 17 18 17 17 17 17 17 17 17
10 9 10 10 10 10 10 10 11 11 12 13 13 14 14 14 14 15 15 15 15 15 15 15 16 16 17 16 17 16 16 16 16 16 16 16 16 15 14 14 16 16 15 16 15
10 9 9 9 10 10 10 10 11 11 11 12 13 14 14 14 14 14 14 14 15 15 15 15 15 15 15 15 15 15 15 15 16 16 16 16 16 14 13 13 14 14 14 14 13
9 9 8 9 9 9 9 10 10 11 11 12 12 13 13 13 13 13 14 13 14 14 14 14 15 15 14 13 14 13 14 14 15 15 15 15 15 13 13 12 12 12 12 12 12
Height
3152 3153 3154 3156 3158 3160 3162 3163 3165 3166 3168 3168 3166 3168 3168 3168 3169 3170 3171 3173 3174 3174 3173 3173 3172 3171 3172 3172 3171 3171 3172 3172 3173 3174 3175 3177 3179 3180 3181 3183 3183 3184 3185 3187 3187
3152 3153 3154 3156 3158 3160 3161 3163 3164 3166 3168 3168 3168 3168 3168 3169 3170 3171 3171 3172 3174 3176 3175 3174 3173 3173 3173 3173 3173 3173 3173 3173 3175 3176 3176 3178 3180 3181 3183 3183 3185 3185 3186 3187 3188
3152 3153 3154 3155 3157 3159 3161 3163 3164 3165 3168 3169 3168 3169 3169 3170 3172 3171 3171 3172 3174 3176 3176 3176 3176 3175 3174 3174 3175 3174 3174 3174 3175 3177 3178 3179 3180 3183 3184 3185 3186 3187 3188 3189 3190
3152 3153 3153 3155 3156 3158 3160 3162 3164 3165 3167 3169 3168 3169 3170 3172 3175 3172 3172 3174 3175 3176 3177 3177 3177 3175 3175 3176 3176 3176 3176 3176 3177 3178 3179 3180 3182 3183 3185 3187 3187 3188 3189 3191 3192
3152 3152 3153 3154 3155 3157 3159 3161 3163 3164 3166 3169 3169 3170 3171 3173 3174 3173 3174 3175 3177 3178 3177 3177 3178 3177 3177 3177 3178 3177 3178 3179 3179 3180 3181 3182 3183 3184 3185 3186 3188 3189 3190 3192 3193
3152 3152 3153 3153 3154 3156 3157 3160 3161 3163 3165 3168 3170 3170 3172 3174 3174 3174 3175 3176 3178 3178 3178 3178 3178 3179 3178 3179 3181 3179 3179 3180 3180 3181 3182 3183 3184 3185 3186 3187 3188 3189 3190 3192 3193
3151 3151 3152 3152 3154 3155 3156 3158 3160 3162 3164 3167 3169 3171 3172 3175 3174 3175 3176 3176 3177 3178 3178 3178 3179 3181 3180 3180 3181 3181 3181 3181 3182 3183 3183 3184 3185 3185 3186 3187 3187 3188 3189 3190 3192
3151 3151 3151 3152 3153 3154 3155 3157 3159 3161 3163 3165 3167 3170 3171 3173 3174 3176 3177 3178 3178 3179 3180 3181 3181 3181 3180 3180 3181 3182 3181 3182 3184 3183 3185 3185 3183 3184 3185 3187 3188 3188 3188 3189 3191
3150 3150 3150 3151 3152 3153 3155 3156 3158 3159 3161 3164 3167 3169 3171 3173 3174 3175 3177 3179 3180 3180 3181 3181 3181 3181 3181 3181 3182 3182 3183 3185 3185 3184 3184 3185 3182 3184 3185 3186 3187 3187 3188 3188 3188
3150 3149 3149 3150 3151 3152 3154 3155 3156 3158 3160 3162 3165 3170 3169 3171 3173 3174 3176 3177 3179 3179 3180 3181 3181 3181 3183 3184 3184 3184 3184 3185 3185 3184 3183 3183 3182 3183 3185 3185 3185 3185 3186 3187 3188
3150 3149 3149 3149 3151 3152 3154 3155 3158 3160 3159 3160 3161 3164 3165 3168 3171 3173 3174 3177 3178 3179 3180 3180 3181 3182 3184 3183 3184 3185 3185 3183 3179 3180 3182 3181 3181 3181 3184 3185 3184 3184 3184 3185 3187
3149 3148 3148 3148 3150 3151 3153 3154 3155 3158 3158 3158 3159 3162 3164 3165 3168 3171 3173 3175 3176 3178 3180 3181 3180 3182 3182 3182 3181 3181 3182 3181 3175 3179 3180 3178 3178 3180 3179 3181 3184 3184 3184 3184 3186
3148 3148 3148 3148 3149 3151 3152 3154 3155 3156 3156 3156 3157 3160 3163 3165 3167 3169 3172 3174 3175 3177 3178 3179 3180 3181 3180 3179 3177 3179 3179 3181 3178 3178 3178 3177 3175 3175 3176 3177 3179 3181 3182 3182 3185
3147 3147 3147 3147 3150 3149 3151 3153 3155 3156 3155 3154 3155 3159 3161 3163 3166 3168 3171 3174 3174 3177 3179 3179 3179 3180 3179 3178 3176 3176 3176 3176 3178 3178 3178 3177 3174 3170 3172 3172 3174 3177 3179 3180 3182
3145 3145 3146 3146 3147 3148 3152 3153 3154 3156 3155 3154 3154 3156 3158 3163 3165 3167 3169 3171 3173 3175 3177 3178 3177 3177 3177 3177 3176 3177 3176 3175 3178 3178 3178 3177 3178 3166 3166 3166 3169 3173 3177 3178 3181
3143 3143 3144 3145 3146 3148 3150 3152 3155 3157 3152 3153 3153 3154 3157 3159 3163 3164 3167 3169 3172 3172 3173 3172 3174 3175 3175 3176 3177 3177 3176 3176 3178 3180 3181 3173 3177 3161 3162 3163 3166 3171 3175 3178 3179
3140 3140 3142 3143 3145 3146 3149 3152 3156 3153 3152 3153 3152 3153 3155 3158 3161 3162 3164 3166 3169 3171 3171 3171 3171 3172 3174 3175 3175 3176 3176 3177 3180 3180 3175 3171 3171 3162 3162 3163 3164 3169 3173 3177 3180
3137 3138 3139 3141 3143 3145 3148 3152 3152 3149 3149 3149 3149 3151 3153 3156 3159 3161 3162 3164 3166 3168 3170 3169 3170 3170 3171 3171 3172 3173 3174 3174 3177 3178 3170 3169 3165 3161 3162 3162 3164 3167 3170 3174 3178
3134 3135 3136 3138 3141 3143 3147 3147 3146 3148 3148 3147 3147 3150 3152 3155 3158 3160 3161 3162 3163 3165 3169 3167 3166 3167 3166 3165 3168 3169 3170 3172 3171 3171 3171 3166 3163 3162 3163 3164 3166 3168 3170 3173 3177
3130 3131 3133 3134 3137 3141 3144 3143 3145 3146 3147 3147 3147 3149 3150 3154 3157 3158 3159 3158 3159 3161 3164 3166 3165 3164 3163 3162 3163 3166 3168 3169 3169 3171 3170 3164 3162 3162 3163 3166 3167 3169 3171 3174 3177
3127 3128 3129 3131 3134 3137 3137 3139 3142 3144 3146 3146 3146 3148 3150 3151 3154 3155 3156 3157 3157 3158 3160 3163 3166 3164 3163 3163 3163 3165 3165 3167 3168 3168 3167 3170 3164 3163 3165 3167 3168 3170 3172 3174 3176
3123 3125 3126 3127 3131 3131 3133 3136 3138 3141 3143 3144 3145 3147 3148 3150 3151 3152 3153 3152 3152 3154 3156 3159 3162 3161 3163 3162 3162 3162 3163 3164 3164 3166 3166 3166 3165 3163 3164 3166 3168 3170 3172 3173 3174
3120 3122 3123 3124 3126 3128 3131 3133 3134 3137 3139 3142 3143 3145 3146 3148 3150 3150 3150 3151 3150 3151 3153 3155 3158 3160 3162 3164 3162 3162 3162 3162 3162 3162 3162 3164 3164 3162 3160 3162 3165 3167 3169 3171 3173
3118 3120 3121 3121 3123 3125 3127 3128 3130 3134 3135 3136 3139 3142 3143 3145 3147 3148 3149 3149 3149 3149 3149 3150 3152 3153 3155 3156 3158 3158 3159 3160 3160 3161 3161 3160 3160 3159 3160 3161 3162 3165 3167 3169 3171
3114 3115 3117 3118 3121 3122 3124 3126 3127 3130 3130 3132 3134 3138 3140 3142 3144 3145 3147 3148 3149 3149 3149 3149 3148 3148 3150 3152 3153 3154 3156 3156 3158 3159 3160 3159 3158 3158 3159 3159 3161 3163 3165 3167 3169
3112 3114 3115 3116 3118 3120 3122 3123 3125 3126 3128 3129 3131 3133 3136 3138 3140 3142 3143 3145 3146 3147 3147 3147 3147 3147 3148 3149 3150 3150 3152 3152 3153 3155 3156 3156 3156 3156 3158 3159 3160 3161 3163 3165 3167
3110 3110 3113 3114 3116 3118 3120 3121 3122 3124 3126 3126 3128 3130 3131 3133 3135 3137 3138 3140 3141 3142 3143 3144 3144 3145 3146 3148 3148 3149 3148 3149 3150 3151 3153 3153 3153 3154 3155 3157 3157 3159 3161 3162 3164
Wind_Speed
8 10 13 15 16 15 14 11 10 8 7 6 3 2 2 3 3 2 3 5 10 11 14 16 14 14 16 13 7 6 4 2 7 11 11 10 8 8 6 5 9 7 8 9 12
6 8 11 14 16 16 15 13 10 9 7 6 4 3 3 5 5 3 1 4 9 17 17 11 14 12 9 13 13 8 5 4 2 4 6 7 7 6 7 6 5 4 9 11 8
4 6 9 12 16 17 16 15 12 10 8 7 4 5 7 8 7 3 4 9 7 12 14 14 11 12 11 12 10 7 9 3 5 5 5 2 5 4 5 5 5 7 4 9 11
2 3 6 9 13 17 18 17 15 12 10 8 5 7 9 10 5 6 9 11 11 5 7 11 13 13 13 10 9 8 8 2 7 8 5 6 5 9 9 7 4 7 5 3 9
2 3 5 7 10 14 18 18 17 15 12 10 7 8 9 8 8 9 7 8 11 12 9 8 10 10 10 10 7 7 4 3 4 9 7 5 4 5 6 5 3 5 5 3 7
2 4 5 7 8 11 14 19 19 17 15 13 10 10 10 9 7 10 9 9 10 11 10 11 8 8 6 6 6 5 5 4 4 4 2 1 1 2 2 3 2 6 4 1 5
2 4 5 6 7 10 11 15 20 20 18 15 13 11 10 7 7 9 11 12 10 8 5 4 4 6 4 2 2 4 4 5 7 6 5 5 10 6 5 5 4 6 6 2 5
2 3 6 7 7 8 11 12 15 19 20 18 16 13 11 9 8 8 11 14 12 8 4 2 3 4 7 3 1 5 1 6 8 13 11 12 15 11 8 9 7 5 7 4 6
4 1 6 8 7 7 9 11 12 15 20 21 19 16 14 12 8 10 12 17 14 11 8 6 2 2 6 6 4 8 6 2 5 8 18 16 21 14 10 8 11 8 8 8 7
3 2 4 9 9 8 9 10 11 12 15 20 21 16 12 15 12 10 12 18 15 16 11 7 4 1 7 9 5 7 4 9 8 8 12 20 23 21 15 3 3 7 8 8 8
3 2 2 8 10 10 9 10 9 10 13 15 18 24 20 14 15 13 14 16 19 20 14 10 6 5 7 12 12 8 9 4 23 21 16 16 24 24 21 12 3 6 10 5 3
4 2 2 6 10 11 10 10 10 7 7 14 14 22 18 18 18 17 17 18 19 18 17 13 7 5 9 15 12 14 11 11 7 16 16 16 18 20 20 18 9 6 3 4 3
5 4 3 5 10 12 14 12 9 6 9 10 15 21 18 19 18 18 18 18 21 18 18 16 7 11 10 16 10 7 14 4 7 10 11 15 23 20 14 13 15 12 11 10 10
6 6 5 4 10 15 15 11 9 6 7 5 17 22 20 19 19 19 16 15 17 18 17 15 15 10 8 12 8 6 5 19 17 14 10 8 9 21 13 10 14 14 12 9 9
6 7 7 6 9 15 12 12 8 5 4 2 13 20 21 18 11 21 18 14 15 15 14 17 11 10 11 6 10 6 10 7 20 24 23 18 8 12 12 15 16 15 16 14 10
8 8 9 9 10 14 15 12 7 4 4 4 10 18 23 20 8 17 21 17 14 14 13 18 19 17 13 12 9 9 9 10 13 20 10 26 17 24 14 9 5 13 17 16 13
9 9 11 12 14 13 15 12 5 5 1 2 7 10 15 19 15 13 20 20 18 13 15 19 25 24 18 15 12 7 9 2 1 2 8 4 6 16 10 9 3 11 17 16 11
9 11 11 15 15 15 15 13 8 5 3 4 9 11 14 20 18 13 19 22 22 20 8 11 22 27 21 19 15 11 12 5 3 3 6 7 7 4 2 2 7 12 12 11 11
10 11 12 17 18 18 20 17 4 7 3 3 6 11 15 21 13 16 18 22 22 19 16 8 10 2 11 19 22 17 13 11 5 7 3 4 8 6 6 6 7 9 8 9 13
10 11 13 16 21 22 24 21 12 7 3 5 3 10 12 17 16 11 15 9 14 20 12 9 8 2 4 6 7 15 6 6 5 2 3 4 5 0 12 12 9 9 8 15 14
11 12 13 16 22 26 30 27 21 11 7 2 5 6 6 11 21 21 10 12 11 7 13 25 17 7 9 2 2 8 9 10 3 4 5 0 3 6 12 14 13 11 7 7 10
12 11 13 16 24 29 29 28 23 19 20 12 8 7 6 11 10 11 9 11 10 13 16 16 9 13 9 4 4 6 7 6 4 3 4 2 9 9 14 21 17 15 11 11 9
13 13 15 17 20 23 24 23 23 25 22 16 13 11 8 12 10 12 11 5 9 10 12 20 19 18 5 12 10 8 7 2 2 5 7 3 7 12 11 20 24 21 19 15 14
15 15 18 18 17 18 17 19 19 18 16 18 19 16 15 13 9 8 10 10 5 6 9 15 20 24 25 17 16 13 8 4 2 2 4 9 12 11 12 16 21 23 19 17 17
18 17 21 19 22 18 17 13 10 9 14 14 20 24 21 17 15 14 12 10 9 9 7 11 14 23 23 17 19 14 11 9 8 9 8 11 14 13 15 17 19 17 15 15 15
16 19 19 22 18 22 17 14 13 9 9 12 14 23 23 21 18 17 16 17 18 17 15 15 11 12 12 12 11 10 10 9 11 11 12 17 15 17 20 17 17 17 17 16 16
12 18 19 19 18 16 17 14 12 13 11 13 13 16 17 19 18 16 17 16 19 20 19 16 16 15 9 11 11 9 13 14 16 15 15 15 13 22 24 22 23 21 19 18 17
Wind_Direction
160 176 183 184 186 189 189 186 180 172 159 155 184 163 158 192 189 143 93 82 84 87 47 64 57 55 67 63 47 64 69 86 189 168 166 184 167 162 173 109 107 117 158 186 174
154 172 183 189 190 192 194 192 190 182 166 159 171 148 150 148 138 113 304 112 105 103 74 73 42 49 53 39 43 47 29 11 226 185 185 164 166 181 171 157 107 116 158 173 179
144 166 179 189 192 194 196 197 196 194 178 164 172 147 142 136 119 105 158 130 120 107 81 48 46 65 54 40 20 49 10 323 137 187 206 135 179 155 132 125 60 49 147 168 169
161 176 179 185 192 196 197 200 201 201 190 172 178 159 152 144 109 138 134 131 140 126 111 86 44 55 52 46 44 16 354 190 125 100 147 96 127 117 96 86 97 81 97 201 173
186 198 197 192 193 193 198 201 203 204 197 185 182 169 160 160 135 153 152 142 137 113 112 86 44 51 68 45 35 10 324 185 141 91 102 98 74 83 103 96 24 72 63 132 176
221 204 202 200 199 196 194 199 203 205 202 195 187 182 155 153 149 164 159 155 132 115 103 89 34 354 20 73 55 6 325 256 219 151 173 327 20 163 209 152 338 32 24 87 183
244 220 207 206 200 197 196 195 199 203 206 203 198 196 201 183 172 173 171 167 145 135 113 70 24 358 23 99 103 23 332 244 226 221 227 266 254 290 264 276 305 320 348 326 211
350 218 214 207 203 195 194 196 197 202 206 207 207 204 205 198 181 179 178 178 165 152 155 282 340 14 60 30 176 3 140 204 238 236 236 264 281 297 300 265 306 300 309 326 232
5 273 210 205 203 195 193 194 195 199 205 209 210 211 216 196 185 197 177 173 180 189 218 233 254 40 63 74 16 27 123 175 175 248 238 252 270 291 297 280 269 263 286 319 221
352 349 213 203 199 194 191 195 194 198 202 209 214 213 213 211 198 196 191 185 191 205 222 257 283 337 74 54 0 339 130 285 255 249 249 245 256 268 287 278 279 267 275 300 239
316 331 227 200 196 193 192 192 196 204 203 204 207 207 213 221 205 194 203 200 200 208 215 256 247 131 3 333 308 285 272 267 304 242 270 262 254 260 274 265 236 249 252 283 269
284 286 274 203 198 193 196 199 204 201 222 218 214 200 202 205 205 200 202 206 212 210 217 250 227 328 336 336 302 281 246 294 58 217 257 260 266 262 260 256 252 269 247 270 257
265 258 253 215 196 195 201 207 216 232 275 241 210 192 190 206 207 202 204 208 215 223 226 245 233 312 324 330 327 272 234 204 154 196 242 273 283 275 273 263 239 224 239 237 251
257 243 230 222 198 198 206 210 229 278 291 230 198 191 199 205 207 203 203 209 216 224 232 251 267 280 294 331 336 291 305 243 230 246 258 283 288 292 283 265 241 212 212 199 215
257 242 226 219 205 203 205 211 230 286 331 138 184 188 199 206 211 202 204 212 219 223 231 239 257 253 277 16 17 334 308 252 237 249 257 271 272 291 290 268 220 205 193 176 199
243 237 223 212 209 208 212 220 244 270 255 167 174 194 205 211 209 204 210 209 212 231 241 250 257 259 269 293 304 306 302 192 226 235 259 271 246 293 291 335 296 191 186 173 169
239 235 221 212 213 205 212 218 228 232 129 167 212 207 215 214 196 188 206 209 218 238 249 243 243 247 265 279 273 250 230 184 145 169 228 298 213 272 303 341 143 180 179 172 176
240 233 223 213 213 204 197 194 223 160 131 274 234 219 202 191 199 200 208 215 221 227 252 257 259 255 259 253 257 260 243 223 233 206 277 251 245 274 260 243 164 176 174 193 205
243 233 226 214 211 205 196 199 209 169 35 344 176 204 198 202 203 218 227 229 231 229 229 224 246 226 264 258 245 238 236 237 238 279 298 257 279 282 207 191 173 175 163 181 182
245 233 226 214 208 207 205 213 207 174 120 89 163 194 203 200 216 222 228 247 235 234 237 254 265 267 360 104 175 212 259 211 223 187 292 286 305 318 196 190 185 152 172 187 179
234 230 221 214 204 207 214 220 217 204 202 79 157 170 198 203 220 232 233 255 249 255 229 242 254 231 340 160 187 233 248 265 270 250 171 307 282 234 200 203 197 199 170 203 214
227 219 216 208 201 210 221 228 231 227 237 253 232 204 210 210 209 208 231 240 239 241 244 242 240 263 265 234 179 210 226 234 205 234 228 238 271 270 267 214 215 214 209 216 202
220 207 199 202 206 212 223 240 249 250 247 252 240 214 200 215 217 223 216 230 245 250 236 238 228 244 146 156 151 162 165 170 244 234 244 189 264 298 269 209 218 220 216 227 235
208 201 199 200 196 196 212 231 243 251 251 227 227 215 210 220 229 223 213 211 226 271 233 234 228 233 227 227 214 199 197 205 292 323 300 277 281 270 239 217 224 225 222 231 236
204 207 205 213 209 214 228 244 219 221 230 232 226 221 223 230 238 232 238 240 231 210 223 201 230 225 232 217 208 218 233 246 267 281 278 300 299 233 206 206 214 217 214 219 217
214 214 214 223 225 227 238 256 230 239 227 236 223 213 225 229 236 248 251 250 254 251 235 226 233 206 183 193 215 241 251 250 275 275 271 274 280 215 192 191 187 190 198 202 203
226 223 223 226 229 235 240 243 232 227 231 230 224 225 221 231 241 245 252 257 246 242 245 242 231 222 208 201 211 232 241 250 262 261 247 235 227 207 200 198 199 196 196 201 201